{"data":{"norad_id":53016,"intl_designator":"2022-076AG","name":"STARLINK-4283","alt_names":[],"object_type":"PAYLOAD","status":"ACTIVE","operator":null,"country":"US","launch_date":"2022-07-07","launch_site_code":"AFETR","launch_vehicle":null,"mission":null,"orbit_class":"UNKNOWN","rcs_meters":null,"size_class":null,"mass_kg":null,"dimensions":null,"purposes":["comms"],"wikipedia_slug":null,"has_3d_model":false,"image_url":null,"decayed_at":null,"tle_current":{"epoch":"2026-09-20T00:50:23.534304Z","epoch_age_seconds":109088,"freshness":"FRESH","line1":"1 53016U 22076AG  26263.03499461 -.00007114  00000+0 -21753-3 0  9992","line2":"2 53016  53.1573 278.9866 0001977  51.4718 308.6461 15.31720827232491","mean_motion":15.31720827,"eccentricity":0.0001977,"inclination_deg":53.1573,"raan_deg":278.9866,"arg_perigee_deg":51.4718,"mean_anomaly_deg":308.6461,"bstar":-0.00021753,"rev_number":23249,"period_min":94.011909651993,"perigee_km":469.32390101782,"apogee_km":472.03192243392,"semimajor_km":6848.8149117259,"source":"CELESTRAK","updated_at":"2026-09-20T09:00:40.145149Z"}}}